Weather History for South Lake Tahoe, CA

Change the Weather History Date:

Wednesday, January 15, 2014

  Actual Average Record
Temperature  
Mean Temperature 40 °F 30 °F  
Max Temperature 58 °F 43 °F 58 °F (1996)
Min Temperature 21 °F 16 °F -7 °F (1997)
Degree Days  
Heating Degree Days 25 35  
Month to date heating degree days 424 532  
Since 1 July heating degree days 3382 3715  
Cooling Degree Days 0 0  
Month to date cooling degree days 0 0  
Year to date cooling degree days 0 0  
Moisture  
Dew Point 12 °F    
Average Humidity 42    
Maximum Humidity 74    
Minimum Humidity 9    
Precipitation  
Precipitation 0.00 in - 3.79 in (1952)
Month to date precipitation 0.17  
Year to date precipitation 0.17  
Sea Level Pressure  
Sea Level Pressure 30.54 in    
Wind  
Wind Speed 4 mph (SSE)    
Max Wind Speed 13 mph    
Max Gust Speed 19 mph    
Visibility 10 miles    
Events      
T = Trace of Precipitation, MM = Missing Value Source: NWS Daily Summary

Daily Weather History Graph

Daily Weather History Graph

Search for Another Location

Airport:

Trip Planner

Search our weather history database for the weather conditions in past years. The results will help you decide how hot, cold, wet, or windy it might be!

Date:

Astronomy

Jan. 15, 2014 Rise Set
Actual Time 7:17 AM PST 5:02 PM PST
Civil Twilight 6:47 AM PST 5:31 PM PST
Nautical Twilight 6:15 AM PST 6:04 PM PST
Astronomical Twilight 5:43 AM PST 6:36 PM PST
Moon 5:03 PM PST (1/15) 6:36 AM PST (1/15)
Length of Visible Light 10h 43m
Length of Day
9h 45m
Full, 100% of the Moon is Illuminated
Jan 15
Full
Jan 15
Full
Jan 23
Last Quarter
Jan 30
New
Feb 6
First Quarter

Hourly Weather History & Observations

Time (PST) Temp. Windchill Dew Point Humidity Pressure Visibility Wind Dir Wind Speed Gust Speed Precip Events Conditions
12:53 AM 25.0 °F 20.7 °F 17.1 °F 72% 30.55 in 10.0 mi South 3.5 mph - N/A   Clear
1:53 AM 24.1 °F 19.7 °F 16.0 °F 71% 30.54 in 10.0 mi South 3.5 mph - N/A   Clear
2:53 AM 24.1 °F 19.7 °F 15.1 °F 69% 30.53 in 10.0 mi Variable 3.5 mph - N/A   Clear
3:53 AM 24.1 °F 16.0 °F 15.1 °F 69% 30.54 in 10.0 mi South 6.9 mph - N/A   Clear
4:53 AM 23.0 °F 17.0 °F 15.1 °F 72% 30.56 in 10.0 mi Variable 4.6 mph - N/A   Clear
5:53 AM 23.0 °F 17.0 °F 14.0 °F 68% 30.58 in 10.0 mi SSW 4.6 mph - N/A   Clear
6:53 AM 21.0 °F 13.4 °F 14.0 °F 74% 30.62 in 10.0 mi South 5.8 mph - N/A   Clear
7:53 AM 21.0 °F 16.2 °F 14.0 °F 74% 30.65 in 10.0 mi SSW 3.5 mph - N/A   Clear
8:53 AM 28.0 °F - 16.0 °F 61% 30.64 in 10.0 mi Calm Calm - N/A   Clear
9:53 AM 37.0 °F 34.5 °F 19.0 °F 48% 30.60 in 10.0 mi Variable 3.5 mph - N/A   Clear
10:53 AM 48.9 °F - 12.9 °F 24% 30.56 in 10.0 mi NE 6.9 mph - N/A   Clear
11:53 AM 53.1 °F - 9.0 °F 17% 30.51 in 10.0 mi North 4.6 mph - N/A   Clear
12:53 PM 57.0 °F - 5.0 °F 12% 30.48 in 10.0 mi ENE 6.9 mph - N/A   Clear
1:53 PM 57.9 °F - -2.9 °F 8% 30.46 in 10.0 mi ENE 8.1 mph 17.3 mph N/A   Clear
2:53 PM 57.0 °F - -2.0 °F 9% 30.46 in 10.0 mi NE 10.4 mph 18.4 mph N/A   Clear
3:53 PM 55.0 °F - 1.0 °F 11% 30.46 in 10.0 mi East 10.4 mph 18.4 mph N/A   Clear
4:53 PM 45.0 °F - 12.0 °F 26% 30.48 in 10.0 mi North - - N/A   Clear
5:53 PM 39.9 °F 35.8 °F 12.0 °F 32% 30.50 in 10.0 mi SSW 5.8 mph - N/A   Clear
6:53 PM 34.0 °F - 14.0 °F 44% 30.55 in 10.0 mi Calm Calm - N/A   Clear
7:53 PM 32.0 °F - 15.1 °F 50% 30.57 in 10.0 mi Calm Calm - N/A   Unknown
8:53 PM 28.9 °F 25.2 °F 15.1 °F 56% 30.56 in 10.0 mi Variable 3.5 mph - N/A   Clear
9:53 PM 27.0 °F - 16.0 °F 63% 30.53 in 10.0 mi Calm Calm - N/A   Clear
10:53 PM 26.1 °F 21.9 °F 15.1 °F 63% 30.49 in 10.0 mi SSW 3.5 mph - N/A   Clear
11:53 PM 24.1 °F 19.7 °F 14.0 °F 65% 30.46 in 10.0 mi South 3.5 mph - N/A   Clear